Arctic Village, AK

3:35 AM AKDT on March 24, 2017 (GMT -0800)
Arctic Village

Weather History for PARC - September, 2012

Change the Weather History Date:

Friday, September 14, 2012

  Actual Average Record
Temperature  
Mean Temperature 34 °F -  
Max Temperature 39 °F 43 °F 59 °F (2011)
Min Temperature 30 °F 24 °F 15 °F (2008)
Degree Days  
Heating Degree Days 30    
Moisture  
Dew Point 27 °F    
Average Humidity 74    
Maximum Humidity 100    
Minimum Humidity 52    
Precipitation  
Precipitation 0.00 in - - ()
Sea Level Pressure  
Sea Level Pressure 29.74 in    
Wind  
Wind Speed 2 mph (SW)    
Max Wind Speed 12 mph    
Max Gust Speed -    
Visibility 10 miles    
Events      
Averages and records for this station are not official NWS values.
T = Trace of Precipitation, MM = Missing Value Source: NWS Daily Summary

Daily Weather History Graph

Daily Weather History Graph

Search for Another Location

Airport or City:

Trip Planner

Search our weather history database for the weather conditions in past years. The results will help you decide how hot, cold, wet, or windy it might be!

Date:

Astronomy

Sep. 14, 2012 Rise Set
Actual Time 6:57 AM AKDT 8:15 PM AKDT
Civil Twilight 5:59 AM AKDT 9:13 PM AKDT
Nautical Twilight 4:41 AM AKDT 10:29 PM AKDT
Astronomical Twilight 2:35 AM AKDT 12:26 AM AKDT
Moon 5:14 AM AKDT (9/14) 7:15 PM AKDT (9/14)
Length of Visible Light 15h 13m
Length of Day
13h 17m
Waning Crescent, 2% of the Moon is Illuminated
Sep 14
Waning Crescent
Sep 15
New
Sep 22
First Quarter
Sep 29
Full
Oct 7
Last Quarter

Hourly Weather History & Observations

Time (AKDT) Temp. Windchill Dew Point Humidity Pressure Visibility Wind Dir Wind Speed Gust Speed Precip Events Conditions
12:16 AM 33.8 °F - 26.6 °F 75% 29.76 in 10.0 mi Calm Calm - N/A   Overcast
12:36 AM 33.8 °F - 28.4 °F 81% 29.76 in 10.0 mi Calm Calm - N/A   Overcast
12:56 AM 33.8 °F - 28.4 °F 81% 29.75 in 10.0 mi Calm Calm - N/A   Overcast
1:16 AM 32.0 °F - 26.6 °F 80% 29.75 in 10.0 mi Calm Calm - N/A   Overcast
1:36 AM 33.8 °F - 26.6 °F 75% 29.75 in 10.0 mi Calm Calm - N/A   Overcast
1:56 AM 33.8 °F - 26.6 °F 75% 29.75 in 10.0 mi Calm Calm - N/A   Overcast
2:16 AM 32.0 °F - 28.4 °F 87% 29.75 in 10.0 mi Calm Calm - N/A   Overcast
2:36 AM 32.0 °F - 26.6 °F 80% 29.75 in 10.0 mi Calm Calm - N/A   Overcast
2:56 AM 32.0 °F 28.7 °F 26.6 °F 80% 29.75 in 10.0 mi South 3.5 mph - N/A   Overcast
3:16 AM 32.0 °F 27.5 °F 28.4 °F 87% 29.75 in 10.0 mi SSW 4.6 mph - N/A   Overcast
3:36 AM 32.0 °F 27.5 °F 28.4 °F 87% 29.75 in 10.0 mi SSW 4.6 mph - N/A   Overcast
3:56 AM 32.0 °F - 28.4 °F 87% 29.74 in 10.0 mi Calm Calm - N/A   Overcast
4:16 AM 32.0 °F - 28.4 °F 87% 29.74 in 10.0 mi Calm Calm - N/A   Overcast
4:36 AM 32.0 °F - 28.4 °F 87% 29.74 in 10.0 mi Calm Calm - N/A   Overcast
4:56 AM 32.0 °F - 28.4 °F 87% 29.74 in 10.0 mi Calm Calm - N/A   Overcast
5:16 AM 30.2 °F - 26.6 °F 86% 29.74 in 10.0 mi Calm Calm - N/A   Overcast
5:36 AM 30.2 °F - 26.6 °F 86% 29.74 in 10.0 mi Calm Calm - N/A   Overcast
5:56 AM 30.2 °F - 28.4 °F 93% 29.74 in 10.0 mi Calm Calm - N/A   Overcast
6:16 AM 30.2 °F 26.7 °F 28.4 °F 93% 29.74 in 3.0 mi WSW 3.5 mph - N/A   Overcast
6:36 AM 30.2 °F - 28.4 °F 93% 29.74 in 1.8 mi Calm Calm - N/A   Overcast
6:56 AM 30.2 °F 26.7 °F 28.4 °F 93% 29.74 in 8.0 mi South 3.5 mph - N/A   Overcast
7:16 AM 30.2 °F 26.7 °F 28.4 °F 93% 29.74 in 10.0 mi SSE 3.5 mph - N/A   Overcast
7:36 AM 30.2 °F 26.7 °F 30.2 °F 100% 29.74 in 10.0 mi NW 3.5 mph - N/A   Overcast
7:56 AM 30.2 °F - 30.2 °F 100% 29.74 in 10.0 mi Calm Calm - N/A   Overcast
8:16 AM 30.2 °F - 28.4 °F 93% 29.74 in 10.0 mi Calm Calm - N/A   Overcast
8:36 AM 30.2 °F - 28.4 °F 93% 29.74 in 10.0 mi Calm Calm - N/A   Overcast
8:56 AM 30.2 °F - 28.4 °F 93% 29.74 in 10.0 mi Calm Calm - N/A   Overcast
9:16 AM 32.0 °F 28.7 °F 30.2 °F 93% 29.74 in 10.0 mi North 3.5 mph - N/A   Overcast
9:36 AM 32.0 °F 28.7 °F 30.2 °F 93% 29.74 in 10.0 mi NNW 3.5 mph - N/A   Overcast
9:56 AM 32.0 °F - 28.4 °F 87% 29.74 in 10.0 mi Calm Calm - N/A   Overcast
10:16 AM 33.8 °F - 28.4 °F 81% 29.75 in 10.0 mi Calm Calm - N/A   Overcast
10:36 AM 33.8 °F 30.8 °F 28.4 °F 81% 29.75 in 10.0 mi East 3.5 mph - N/A   Overcast
10:56 AM 33.8 °F - 28.4 °F 81% 29.75 in 10.0 mi Calm Calm - N/A   Overcast
11:16 AM 33.8 °F - 28.4 °F 81% 29.75 in 10.0 mi Calm Calm - N/A   Overcast
11:36 AM 35.6 °F - 28.4 °F 75% 29.75 in 10.0 mi Calm Calm - N/A   Overcast
11:56 AM 35.6 °F - 28.4 °F 75% 29.75 in 10.0 mi Calm Calm - N/A   Overcast
12:16 PM 35.6 °F - 26.6 °F 70% 29.75 in 10.0 mi Calm Calm - N/A   Overcast
12:36 PM 37.4 °F - 26.6 °F 65% 29.75 in 10.0 mi Calm Calm - N/A   Overcast
12:56 PM 37.4 °F 34.9 °F 26.6 °F 65% 29.75 in 10.0 mi SSW 3.5 mph - N/A   Overcast
1:16 PM 37.4 °F 32.8 °F 26.6 °F 65% 29.75 in 10.0 mi SSW 5.8 mph - N/A   Overcast
1:36 PM 39.2 °F 34.2 °F 26.6 °F 61% 29.74 in 10.0 mi South 6.9 mph - N/A   Overcast
1:56 PM 39.2 °F 34.2 °F 24.8 °F 56% 29.74 in 10.0 mi SSW 6.9 mph - N/A   Overcast
2:16 PM 39.2 °F 35.0 °F 23.0 °F 52% 29.74 in 10.0 mi SSW 5.8 mph - N/A   Overcast
2:36 PM 39.2 °F 33.6 °F 23.0 °F 52% 29.74 in 10.0 mi SW 8.1 mph - N/A   Overcast
2:56 PM 39.2 °F 33.0 °F 24.8 °F 56% 29.74 in 10.0 mi SW 9.2 mph - N/A   Overcast
3:16 PM 39.2 °F 33.0 °F 24.8 °F 56% 29.74 in 10.0 mi WSW 9.2 mph - N/A   Overcast
3:36 PM 39.2 °F 33.0 °F 24.8 °F 56% 29.73 in 10.0 mi WSW 9.2 mph - N/A   Overcast
3:56 PM 39.2 °F 32.0 °F 24.8 °F 56% 29.73 in 10.0 mi WSW 11.5 mph - N/A   Overcast
4:16 PM 39.2 °F 33.0 °F 24.8 °F 56% 29.73 in 10.0 mi WSW 9.2 mph - N/A   Overcast
4:36 PM 39.2 °F 33.6 °F 24.8 °F 56% 29.73 in 10.0 mi WSW 8.1 mph - N/A   Overcast
4:56 PM 39.2 °F 34.2 °F 23.0 °F 52% 29.73 in 10.0 mi SW 6.9 mph - N/A   Overcast
5:16 PM 39.2 °F 33.6 °F 24.8 °F 56% 29.73 in 10.0 mi SW 8.1 mph - N/A   Overcast
5:36 PM 39.2 °F 32.5 °F 24.8 °F 56% 29.73 in 10.0 mi SW 10.4 mph - N/A   Overcast
5:56 PM 39.2 °F 33.6 °F 24.8 °F 56% 29.74 in 10.0 mi SW 8.1 mph - N/A   Overcast
6:16 PM 39.2 °F 34.2 °F 23.0 °F 52% 29.74 in 10.0 mi SW 6.9 mph - N/A   Overcast
6:36 PM 39.2 °F 33.0 °F 23.0 °F 52% 29.74 in 10.0 mi WSW 9.2 mph - N/A   Overcast
6:56 PM 37.4 °F 32.1 °F 24.8 °F 60% 29.74 in 10.0 mi SW 6.9 mph - N/A   Mostly Cloudy
7:16 PM 37.4 °F 32.1 °F 24.8 °F 60% 29.74 in 10.0 mi SSW 6.9 mph - N/A   Overcast
7:36 PM 37.4 °F 32.8 °F 24.8 °F 60% 29.74 in 10.0 mi SSW 5.8 mph - N/A   Overcast
7:56 PM 37.4 °F 34.9 °F 24.8 °F 60% 29.74 in 10.0 mi SSW 3.5 mph - N/A   Overcast
8:16 PM 37.4 °F 34.9 °F 24.8 °F 60% 29.74 in 10.0 mi SSW 3.5 mph - N/A   Overcast
8:36 PM 37.4 °F 33.8 °F 24.8 °F 60% 29.74 in 10.0 mi SW 4.6 mph - N/A   Overcast
8:56 PM 35.6 °F 30.7 °F 24.8 °F 65% 29.74 in 10.0 mi SW 5.8 mph - N/A   Overcast
9:16 PM 35.6 °F 32.8 °F 26.6 °F 70% 29.74 in 10.0 mi SSW 3.5 mph - N/A   Overcast
9:36 PM 35.6 °F - 26.6 °F 70% 29.74 in 10.0 mi Calm Calm - N/A   Overcast
9:56 PM 35.6 °F - 26.6 °F 70% 29.74 in 10.0 mi Calm Calm - N/A   Overcast
10:16 PM 35.6 °F - 26.6 °F 70% 29.74 in 10.0 mi Calm Calm - N/A   Overcast
10:36 PM 35.6 °F - 26.6 °F 70% 29.75 in 10.0 mi Calm Calm - N/A   Overcast
10:56 PM 33.8 °F - 28.4 °F 81% 29.75 in 10.0 mi Calm Calm - N/A   Mostly Cloudy
11:16 PM 33.8 °F - 28.4 °F 81% 29.75 in 10.0 mi Calm Calm - N/A   Mostly Cloudy
11:36 PM 33.8 °F - 28.4 °F 81% 29.75 in 10.0 mi Calm Calm - N/A   Overcast
11:56 PM 33.8 °F - 26.6 °F 75% 29.75 in 10.0 mi Calm Calm - N/A   Overcast